Weather History for KGGP - May, 2014

Change the Weather History Date:

Friday, May 2, 2014

  Actual Average Record
Temperature  
Mean Temperature 48 °F -  
Max Temperature 51 °F 68 °F 78 °F (2013)
Min Temperature 44 °F 47 °F 44 °F (2014)
Degree Days  
Heating Degree Days 18    
Moisture  
Dew Point 40 °F    
Average Humidity 77    
Maximum Humidity 87    
Minimum Humidity 58    
Precipitation  
Precipitation 0.00 in - - ()
Sea Level Pressure  
Sea Level Pressure 29.86 in    
Wind  
Wind Speed 13 mph (WSW)    
Max Wind Speed 18 mph    
Max Gust Speed 25 mph    
Visibility 10 miles    
Events Rain    
Averages and records for this station are not official NWS values.
T = Trace of Precipitation, MM = Missing Value Source: NWS Daily Summary

Daily Weather History Graph

Daily Weather History Graph

Search for Another Location

Airport or City:

Trip Planner

Search our weather history database for the weather conditions in past years. The results will help you decide how hot, cold, wet, or windy it might be!

Date:

Astronomy

May. 02, 2014 Rise Set
Actual Time 6:42 AM EDT 8:42 PM EDT
Civil Twilight 6:13 AM EDT 9:12 PM EDT
Nautical Twilight 5:36 AM EDT 9:49 PM EDT
Astronomical Twilight 4:57 AM EDT 10:28 PM EDT
Moon 9:19 AM EDT (5/2) No Moon Set
Length of Visible Light 14h 59m
Length of Day
13h 59m
Waxing Crescent, 12% of the Moon is Illuminated
May 2
Waxing Crescent
May 6
First Quarter
May 14
Full
May 21
Last Quarter
May 28
New

Hourly Weather History & Observations

Time (EDT) Temp. Windchill Dew Point Humidity Pressure Visibility Wind Dir Wind Speed Gust Speed Precip Events Conditions
12:15 AM 44.6 °F 39.2 °F 41.0 °F 87% 29.86 in 10.0 mi WSW 10.4 mph - N/A   Overcast
12:35 AM 44.6 °F 38.1 °F 41.0 °F 87% 29.86 in 10.0 mi WSW 13.8 mph - N/A   Overcast
12:55 AM 44.6 °F 38.1 °F 41.0 °F 87% 29.86 in 10.0 mi WSW 13.8 mph 19.6 mph N/A   Overcast
1:15 AM 44.6 °F 37.8 °F 41.0 °F 87% 29.86 in 10.0 mi WSW 15.0 mph - N/A   Overcast
1:35 AM 44.6 °F 38.1 °F 41.0 °F 87% 29.86 in 10.0 mi WSW 13.8 mph - N/A   Overcast
1:55 AM 44.6 °F 37.8 °F 41.0 °F 87% 29.86 in 10.0 mi WSW 15.0 mph 18.4 mph N/A   Overcast
2:15 AM 44.6 °F 37.4 °F 41.0 °F 87% 29.86 in 10.0 mi WSW 16.1 mph - N/A   Overcast
2:35 AM 44.6 °F 38.1 °F 41.0 °F 87% 29.85 in 10.0 mi WSW 13.8 mph - N/A   Overcast
2:55 AM 44.6 °F 38.1 °F 41.0 °F 87% 29.85 in 10.0 mi WSW 13.8 mph - N/A   Overcast
3:15 AM 44.6 °F 38.1 °F 41.0 °F 87% 29.84 in 10.0 mi WSW 13.8 mph - N/A   Overcast
3:35 AM 44.6 °F 38.1 °F 41.0 °F 87% 29.84 in 10.0 mi WSW 13.8 mph - N/A   Overcast
3:55 AM 44.6 °F 37.8 °F 41.0 °F 87% 29.84 in 10.0 mi WSW 15.0 mph - N/A   Overcast
4:15 AM 44.6 °F 38.1 °F 41.0 °F 87% 29.84 in 10.0 mi WSW 13.8 mph 18.4 mph N/A   Overcast
4:35 AM 44.6 °F 38.4 °F 41.0 °F 87% 29.84 in 10.0 mi WSW 12.7 mph - N/A   Overcast
4:55 AM 44.6 °F 38.8 °F 41.0 °F 87% 29.84 in 10.0 mi WSW 11.5 mph - N/A   Overcast
5:15 AM 44.6 °F 38.8 °F 41.0 °F 87% 29.84 in 10.0 mi WSW 11.5 mph - N/A   Overcast
5:35 AM 44.6 °F 38.8 °F 41.0 °F 87% 29.84 in 10.0 mi West 11.5 mph - N/A   Overcast
5:55 AM 44.6 °F 38.4 °F 41.0 °F 87% 29.84 in 10.0 mi WSW 12.7 mph - N/A   Overcast
6:15 AM 44.6 °F 38.1 °F 41.0 °F 87% 29.85 in 10.0 mi WSW 13.8 mph 18.4 mph N/A   Overcast
6:35 AM 44.6 °F 37.8 °F 41.0 °F 87% 29.85 in 10.0 mi WSW 15.0 mph - N/A   Overcast
6:55 AM 44.6 °F 39.7 °F 41.0 °F 87% 29.85 in 10.0 mi WSW 9.2 mph - N/A   Overcast
7:15 AM 44.6 °F 38.8 °F 41.0 °F 87% 29.85 in 10.0 mi WSW 11.5 mph - N/A   Overcast
7:35 AM 44.6 °F 38.8 °F 41.0 °F 87% 29.85 in 10.0 mi WSW 11.5 mph - N/A   Overcast
7:55 AM 44.6 °F 39.7 °F 41.0 °F 87% 29.85 in 10.0 mi West 9.2 mph - N/A   Overcast
8:15 AM 44.6 °F 39.2 °F 41.0 °F 87% 29.86 in 10.0 mi West 10.4 mph - N/A   Overcast
8:35 AM 44.6 °F 38.8 °F 41.0 °F 87% 29.86 in 10.0 mi West 11.5 mph - N/A   Overcast
8:55 AM 46.4 °F 41.5 °F 41.0 °F 81% 29.86 in 10.0 mi West 10.4 mph - N/A   Overcast
9:15 AM 46.4 °F 41.5 °F 41.0 °F 81% 29.87 in 10.0 mi West 10.4 mph - N/A   Overcast
9:35 AM 46.4 °F 41.1 °F 41.0 °F 81% 29.87 in 10.0 mi West 11.5 mph - N/A   Overcast
9:55 AM 46.4 °F 41.1 °F 41.0 °F 81% 29.87 in 10.0 mi West 11.5 mph - N/A   Overcast
10:15 AM 46.4 °F 40.4 °F 41.0 °F 81% 29.88 in 10.0 mi WSW 13.8 mph - N/A   Overcast
10:35 AM 46.4 °F 40.1 °F 41.0 °F 81% 29.87 in 10.0 mi WSW 15.0 mph 18.4 mph N/A   Overcast
10:55 AM 46.4 °F 40.4 °F 41.0 °F 81% 29.88 in 10.0 mi West 13.8 mph - N/A   Overcast
11:15 AM 48.2 °F - 39.2 °F 71% 29.88 in 10.0 mi WSW 15.0 mph 19.6 mph N/A   Overcast
11:35 AM 50.0 °F - 37.4 °F 62% 29.88 in 10.0 mi WSW 13.8 mph 20.7 mph N/A   Overcast
11:55 AM 48.2 °F - 39.2 °F 71% 29.89 in 10.0 mi WSW 11.5 mph 17.3 mph N/A   Overcast
12:15 PM 48.2 °F - 39.2 °F 71% 29.89 in 10.0 mi WSW 12.7 mph - N/A   Overcast
12:35 PM 48.2 °F - 37.4 °F 66% 29.89 in 10.0 mi SW 15.0 mph 23.0 mph N/A   Overcast
12:55 PM 50.0 °F - 39.2 °F 66% 29.88 in 10.0 mi SW 13.8 mph - N/A   Overcast
1:15 PM 50.0 °F - 37.4 °F 62% 29.88 in 10.0 mi SW 12.7 mph 19.6 mph N/A   Overcast
1:35 PM 51.8 °F - 37.4 °F 58% 29.88 in 10.0 mi SW 15.0 mph 19.6 mph N/A   Overcast
1:55 PM 51.8 °F - 39.2 °F 62% 29.87 in 10.0 mi SW 15.0 mph 20.7 mph N/A   Overcast
2:15 PM 51.8 °F - 39.2 °F 62% 29.86 in 10.0 mi SW 16.1 mph 19.6 mph N/A   Overcast
2:35 PM 51.8 °F - 37.4 °F 58% 29.86 in 10.0 mi SW 11.5 mph 18.4 mph N/A   Overcast
2:55 PM 51.8 °F - 39.2 °F 62% 29.86 in 10.0 mi SW 12.7 mph 17.3 mph N/A   Overcast
3:15 PM 50.0 °F - 37.4 °F 62% 29.85 in 10.0 mi WSW 11.5 mph - N/A   Overcast
3:35 PM 51.8 °F - 37.4 °F 58% 29.85 in 10.0 mi WSW 12.7 mph - N/A   Overcast
3:55 PM 50.0 °F - 37.4 °F 62% 29.84 in 10.0 mi WSW 16.1 mph 20.7 mph N/A   Overcast
4:15 PM 50.0 °F - 37.4 °F 62% 29.85 in 10.0 mi West 13.8 mph 25.3 mph N/A   Overcast
4:35 PM 50.0 °F - 39.2 °F 66% 29.84 in 10.0 mi WSW 13.8 mph 19.6 mph N/A   Overcast
4:55 PM 51.8 °F - 39.2 °F 62% 29.85 in 10.0 mi WSW 12.7 mph - N/A   Overcast
5:15 PM 51.8 °F - 37.4 °F 58% 29.85 in 10.0 mi WSW 17.3 mph - N/A   Overcast
5:35 PM 50.0 °F - 37.4 °F 62% 29.85 in 10.0 mi WSW 16.1 mph - N/A   Overcast
5:55 PM 50.0 °F - 39.2 °F 66% 29.85 in 10.0 mi WSW 18.4 mph 25.3 mph N/A   Overcast
6:15 PM 50.0 °F - 39.2 °F 66% 29.85 in 10.0 mi WSW 16.1 mph 20.7 mph N/A   Overcast
6:35 PM 50.0 °F - 41.0 °F 71% 29.85 in 10.0 mi WSW 15.0 mph - N/A   Overcast
6:55 PM 50.0 °F - 39.2 °F 66% 29.84 in 10.0 mi SW 16.1 mph - N/A   Overcast
7:15 PM 50.0 °F - 41.0 °F 71% 29.84 in 10.0 mi WSW 15.0 mph - N/A   Overcast
7:35 PM 50.0 °F - 41.0 °F 71% 29.84 in 10.0 mi WSW 12.7 mph - N/A   Overcast
7:55 PM 50.0 °F - 41.0 °F 71% 29.84 in 10.0 mi SW 12.7 mph - N/A   Overcast
8:15 PM 50.0 °F - 41.0 °F 71% 29.85 in 10.0 mi SW 9.2 mph - N/A   Overcast
8:35 PM 50.0 °F - 41.0 °F 71% 29.85 in 10.0 mi SW 8.1 mph - N/A   Overcast
8:55 PM 48.2 °F - 41.0 °F 76% 29.85 in 10.0 mi SSW 12.7 mph - N/A Rain Light Rain
9:15 PM 46.4 °F 41.5 °F 42.8 °F 87% 29.86 in 10.0 mi SW 10.4 mph - N/A   Light Drizzle
9:35 PM 46.4 °F 42.4 °F 42.8 °F 87% 29.86 in 10.0 mi SW 8.1 mph - N/A   Overcast
9:55 PM 46.4 °F 41.5 °F 42.8 °F 87% 29.86 in 10.0 mi SW 10.4 mph - N/A   Overcast
10:15 PM 48.2 °F - 41.0 °F 76% 29.86 in 10.0 mi SW 11.5 mph - N/A   Overcast
10:35 PM 48.2 °F - 41.0 °F 76% 29.86 in 10.0 mi SW 10.4 mph - N/A   Overcast
10:55 PM 48.2 °F - 41.0 °F 76% 29.85 in 10.0 mi SSW 9.2 mph - N/A   Overcast
11:15 PM 48.2 °F - 41.0 °F 76% 29.85 in 10.0 mi SW 9.2 mph - N/A   Overcast
11:35 PM 48.2 °F - 41.0 °F 76% 29.84 in 10.0 mi SSW 9.2 mph - N/A   Overcast
11:55 PM 46.4 °F 42.9 °F 41.0 °F 81% 29.84 in 10.0 mi SW 6.9 mph - N/A Rain Light Rain